Погода в Пиексямяки

Финляндия     62°18′06″N   27°09′54″E
темп.,
°C
ветер,
м/с
пор.,
м/с
влажн.,
%
обл.,
%
осадки,
мм/ч
давл.,
гПа
погр.,
м
27 ноября, сб
сб2723:00−9зсз289528 0.0 1002208
02:00−10зсз25955 0.0 1004118
05:00−11з119749 0.0 100615
08:00−11ссз119745 0.0 100832
11:00−9ссв12895 0.0 100971
14:00−9ссв24925 0.0 1009108
17:00−10ссв259754 0.0 1009104
20:00−10св289658 0.0 1009182
28 ноября, вс
вс2823:00−10св3896100 0.0 1009214
02:00−9св3994100 0.0 1008285
05:00−8св31084100 0.0 1007369
08:00−8ссв31092100 0.0 1007387
11:00−7св31088100 0.0 1008493
14:00−7св3982100 0.0 1008489
17:00−7св41083100 0.0 1009494
20:00−7всв31084100 0.0 1010513
29 ноября, пн
пн2923:00−7всв3885100 0.0 1011427
02:00−7всв3986100 0.0 1011425
05:00−8всв3886100 0.0 1011368
08:00−8всв398988 0.0 1011337
11:00−8всв3888100 0.0 1011480
14:00−8всв4985100 0.0 1009606
17:00−9всв41177100 0.0 1006570
20:00−9св51177100 0.0 1004626
30 ноября, вт
вт3023:00−8св51276100 0.0 1000732
02:00−7св51174100 0.0 996768
05:00−8ссв51286100 0.1 993659
08:00−8ссв51391100 0.7 991701
11:00−7с51189100 0.6 989810
14:00−7с51189100 0.9 987818
17:00−7с51191100 0.3 986890
20:00−7ссз51191100 0.8 986822
1 декабря, ср
ср123:00−8ссз51190100 0.3 986726
02:00−8ссз51186100 0.5 987784
05:00−9сз51186100 0.0 988678
08:00−9зсз51188100 0.1 990732
11:00−9зсз4118895 0.1 991804
14:00−8зсз4118128 0.1 991703
17:00−9з411855 0.0 992464
20:00−10зюз410905 0.0 992354